{"data":{"norad_id":56306,"epoch":"2026-05-24T23:54:03.995712Z","epoch_age_seconds":72020,"freshness":"FRESH","line1":"1 56306U 23056W   26144.99587958 -.00001890  00000+0 -59168-4 0  9995","line2":"2 56306  43.0008 137.5952 0001032 275.0675  85.0058 15.27576695171779","mean_motion":15.27576695,"eccentricity":0.0001032,"inclination_deg":43.0008,"raan_deg":137.5952,"arg_perigee_deg":275.0675,"mean_anomaly_deg":85.0058,"bstar":-5.9168e-5,"rev_number":17177,"period_min":94.266952665182,"perigee_km":482.35091699005,"apogee_km":483.76706784288,"semimajor_km":6861.1959924165,"source":"CELESTRAK","updated_at":"2026-05-25T13:38:17.998440Z"}}